DW4691 Weather Reports


time (UTC)temp
C
wind
direction
speed
KPH
gust
KPH
rain 1hr
cm
rain 24hr
cm
rain mn
cm
humidity
%
barometer
mb
20260507084551 18 0 0.0 1.6 0.00 0.18 0.00 87 1013.1
20260507083049 18 0 0.0 3.2 0.00 0.18 0.00 87 1012.9
20260507081544 18 0 0.0 1.6 0.00 0.18 0.00 87 1013.1
20260507080113 18 0 0.0 3.2 0.00 0.18 0.00 87 1013.4
20260507074545 18 0 0.0 3.2 0.00 0.18 0.00 86 1013.2
20260507073058 18 0 0.0 0.0 0.00 0.18 0.00 86 1013.6
20260507071559 18 0 0.0 3.2 0.00 0.18 0.00 85 1013.3
20260507070048 18 0 0.0 3.2 0.00 0.18 0.00 85 1013.7
20260507064551 18 0 0.0 0.0 0.00 0.18 0.00 85 1013.6
20260507063046 18 0 0.0 3.2 0.00 0.18 0.00 85 1013.8
20260507061552 18 0 0.0 3.2 0.00 0.18 0.00 84 1013.6
20260507060054 19 0 0.0 6.4 0.00 0.18 0.00 84 1013.3
20260507054552 19 0 0.0 4.8 0.00 0.18 0.00 84 1013.4
20260507053049 19 0 0.0 4.8 0.00 0.18 0.00 83 1013.5
20260507051546 19 0 0.0 3.2 0.00 0.18 0.00 82 1013.4
20260507050044 20 0 0.0 3.2 0.00 0.18 0.00 84 1013.5
20260507044542 20 0 0.0 6.4 0.00 0.18 0.18 83 1013.4
20260507043047 20 0 0.0 0.0 0.00 0.18 0.18 84 1013.1
20260507041545 20 0 0.0 3.2 0.00 0.18 0.18 84 1013.0
20260507040057 20 0 0.0 0.0 0.00 0.18 0.18 84 1013.1
20260507034553 20 0 0.0 0.0 0.00 0.18 0.18 83 1013.2
20260507033045 21 0 0.0 0.0 0.00 0.18 0.18 83 1013.2
20260507031541 21 0 0.0 0.0 0.00 0.18 0.18 84 1012.8
20260507030048 21 0 0.0 3.2 0.00 0.18 0.18 83 1012.5
20260507024544 21 0 0.0 4.8 0.00 0.18 0.18 83 1012.0
20260507023044 21 0 0.0 4.8 0.00 0.18 0.18 83 1011.7
20260507021546 21 0 0.0 3.2 0.00 0.18 0.18 83 1011.3
20260507020100 21 0 0.0 0.0 0.00 0.18 0.18 85 1010.9
20260507014603 21 0 0.0 0.0 0.00 0.18 0.18 85 1010.7
20260507013053 21 0 0.0 0.0 0.00 0.18 0.18 85 1010.4
20260507011602 22 0 0.0 3.2 0.00 0.18 0.18 84 1010.2
20260507010050 22 0 0.0 3.2 0.00 0.18 0.18 84 1009.9
20260507004551 22 0 0.0 0.0 0.00 0.18 0.18 84 1009.6
20260507003047 23 0 0.0 9.7 0.00 0.18 0.18 84 1009.5
20260507001612 23 0 0.0 9.7 0.00 0.18 0.18 84 1009.3
20260507000100 24 0 0.0 3.2 0.00 0.18 0.18 85 1009.0
20260506234546 25 0 0.0 12.9 0.00 0.18 0.18 83 1009.1
20260506233052 27 0 0.0 0.0 0.00 0.18 0.18 81 1008.7
20260506231548 28 0 0.0 0.0 0.00 0.18 0.18 87 1008.3
20260506230052 27 0 0.0 0.0 0.00 0.18 0.18 88 1008.3
20260506224546 27 0 0.0 0.0 0.00 0.18 0.18 88 1008.4
20260506223041 28 0 0.0 0.0 0.00 0.18 0.18 86 1008.2
20260506221544 28 0 0.0 0.0 0.00 0.18 0.18 85 1008.0
20260506220057 29 0 0.0 0.0 0.00 0.18 0.18 85 1008.2
20260506214550 29 0 0.0 0.0 0.00 0.18 0.18 83 1008.1
20260506213047 29 0 0.0 0.0 0.00 0.18 0.18 81 1008.1
20260506211547 29 0 0.0 0.0 0.00 0.18 0.18 83 1008.3
20260506210100 29 0 0.0 0.0 0.00 0.18 0.18 80 1008.3
20260506204552 28 0 0.0 0.0 0.00 0.18 0.18 81 1008.4
20260506203138 28 0 0.0 0.0 0.00 0.18 0.18 86 1008.6
20260506201546 28 0 0.0 0.0 0.00 0.18 0.18 83 1008.7
20260506200051 28 0 0.0 0.0 0.00 0.18 0.18 88 1008.8
20260506194610 27 0 0.0 0.0 0.00 0.18 0.18 89 1008.9
20260506193043 27 0 0.0 0.0 0.00 0.18 0.18 89 1009.0
20260506191545 27 0 0.0 0.0 0.00 0.18 0.18 89 1009.2
20260506190049 27 0 0.0 0.0 0.05 0.18 0.18 89 1009.3
20260506184552 26 0 0.0 0.0 0.10 0.18 0.18 89 1009.3
20260506183047 26 0 0.0 0.0 0.18 0.18 0.18 91 1009.6
20260506181542 26 0 0.0 0.0 0.18 0.18 0.18 89 1009.8
20260506180046 26 0 0.0 0.0 0.13 0.13 0.13 89 1010.3
20260506174546 27 0 0.0 0.0 0.05 0.05 0.05 87 1010.6
20260506173055 27 0 0.0 0.0 0.00 0.00 0.00 85 1010.8
20260506171547 27 0 0.0 0.0 0.00 0.00 0.00 82 1011.0
20260506170103 27 0 0.0 0.0 0.00 0.00 0.00 84 1011.0
20260506164557 27 0 0.0 0.0 0.00 0.00 0.00 84 1011.1
20260506163136 27 0 0.0 0.0 0.00 0.00 0.00 85 1010.8
20260506161550 26 0 0.0 0.0 0.00 0.00 0.00 85 1010.6
20260506160053 26 0 0.0 0.0 0.00 0.00 0.00 86 1010.5
20260506154555 26 0 0.0 0.0 0.00 0.00 0.00 86 1010.3
20260506153050 26 0 0.0 0.0 0.00 0.00 0.00 85 1010.2
20260506151543 26 0 0.0 0.0 0.00 0.00 0.00 85 1010.4
20260506150051 26 0 0.0 0.0 0.00 0.00 0.00 87 1009.9
20260506144545 26 0 0.0 0.0 0.00 0.00 0.00 87 1010.0
20260506143042 26 0 0.0 0.0 0.00 0.00 0.00 88 1009.7
20260506141549 25 0 0.0 0.0 0.00 0.00 0.00 88 1009.6
20260506140047 25 0 0.0 0.0 0.00 0.00 0.00 89 1009.7
20260506134545 25 0 0.0 0.0 0.00 0.00 0.00 89 1009.7
20260506133047 25 0 0.0 0.0 0.00 0.00 0.00 90 1010.0
20260506131550 24 0 0.0 0.0 0.00 0.00 0.00 90 1009.9
20260506130050 24 0 0.0 0.0 0.00 0.00 0.00 91 1010.0
20260506124555 24 0 0.0 0.0 0.00 0.00 0.00 91 1009.8
20260506123050 23 0 0.0 0.0 0.00 0.00 0.00 91 1009.6
20260506121554 23 0 0.0 0.0 0.00 0.00 0.00 91 1009.6
20260506120051 23 0 0.0 0.0 0.00 0.00 0.00 91 1009.5
20260506114551 23 0 0.0 0.0 0.00 0.00 0.00 91 1009.2
20260506113042 23 0 0.0 0.0 0.00 0.00 0.00 90 1009.3
20260506111542 23 0 0.0 0.0 0.00 0.00 0.00 90 1009.1
20260506110047 23 0 0.0 0.0 0.00 0.00 0.00 90 1008.6
20260506104547 23 0 0.0 3.2 0.00 0.00 0.00 90 1008.3
20260506103044 24 0 0.0 4.8 0.00 0.00 0.00 89 1008.2
20260506101549 24 0 0.0 3.2 0.00 0.00 0.00 89 1008.3
20260506100041 24 0 0.0 4.8 0.00 0.00 0.00 89 1008.2
20260506094542 24 0 0.0 6.4 0.00 0.00 0.00 89 1008.1
20260506093046 24 0 0.0 4.8 0.00 0.00 0.00 89 1008.0
20260506091544 24 0 0.0 4.8 0.00 0.00 0.00 89 1007.9
20260506090056 24 0 0.0 3.2 0.00 0.00 0.00 89 1007.7